Location: Bakhuizen
(52.8696°N, 5.4575°E)
Time: 18:44:34
(UTC+00:00)

Meteor 1-27 Rocket - Pass Details

Date: 11 May 2021
Orbit: 829 x 910 km, 81.3° (Epoch: 21 June)

Event Time Altitude Azimuth Distance (km) Brightness Sun altitude
Exits shadow 21:58:48 16° 195° (SSW) 2,150 5.4 -16.0°
Maximum altitude 22:03:34 83° 283° (WNW) 916 3.9 -16.3°
Drops below altitude 10° 22:09:33 10° 12° (NNE) 2,607 7.1 -16.7°
Sets 22:12:02 0° 14° (NNE) 3,555 7.9 -16.8°
